User: anonymous
Location: Unspecified
(0.0000°N, 0.0000°E)
Time: 20:29:46
(UTC+00:00)
Language:

COSMOS 2468 - Orbit

View from above orbital plane
View from above orbital plane
View from above satellite
View from above satellite

Ground track
Ground track

The orbit data is extracted from the following two-line orbital elements,

1 37154U 10043C   14209.11795885  .00000012  00000-0  16675-4 0  2050
2 37154 082.4622 260.1850 0015787 077.7705 282.5146 12.42886982176236
Epoch (UTC): 28 July 2014 02:49:51
Eccentricity: 0.0015787
inclination: 82.4622°
perigee height: 1482 km
apogee height: 1507 km
right ascension of ascending node: 260.1850°
argument of perigee: 77.7705°
revolutions per day: 12.42886982
mean anomaly at epoch: 282.5146°
orbit number at epoch: 17623

The dashed part of the orbit path shows where the satellite is in the earth's shadow,  

DLR